Погода в Лермонтовке

Россия / Амурская область     50°05′02″N   127°51′45″E
темп.,
°C
ветер,
м/с
пор.,
м/с
влажн.,
%
обл.,
%
осадки,
мм/ч
давл.,
гПа
погр.,
м
19 января, вт
вт1900:00−30з22840 0.0 102719
03:00−30зюз23790 0.0 102719
06:00−31ю23770 0.0 102819
09:00−30ю33770 0.0 102824
12:00−23ююз36770 0.0 1027273
15:00−20юз367718 0.0 1026175
18:00−24ююз477910 0.0 102693
21:00−26ю34885 0.0 102758
20 января, ср
ср2000:00−26ю47900 0.0 1026111
03:00−26ю479121 0.0 1025100
06:00−26ююв489130 0.0 1024135
09:00−25ююв589244 0.0 1023188
12:00−20ююв4793100 0.0 1020316
15:00−19вюв4694100 0.1 1016287
18:00−19юв1398100 0.3 1016123
21:00−19с1298100 1.2 101635
21 января, чт
чт2100:00−22ссз4109697 0.1 1019244
03:00−26сз4109060 0.1 1022204
06:00−29сз35890 0.0 102481
09:00−30ссз238615 0.0 102641
12:00−25ссз128191 0.0 1026205
15:00−24ююв128953 0.0 1025156
18:00−28ююв22910 0.0 102719
21:00−29ю22930 0.0 102719
22 января, пт
пт2200:00−30юз11980 0.0 102719
03:00−29ссз12910 0.0 102819
06:00−30ссз22900 0.0 102919
09:00−31сз11870 0.0 103119
12:00−25ю11820 0.0 103185
15:00−23юв22880 0.0 103067
18:00−27юв23830 0.0 103119
21:00−28ююв23880 0.0 103219
23 января, сб
сб2300:00−28юв23900 0.0 103120
03:00−29юв33890 0.0 103124
06:00−26юв339073 0.0 102962
09:00−25ююв469281 0.0 1029113
12:00−21ююв479187 0.0 1027266
15:00−17ююв499193 0.0 1024379
18:00−18ююв3691100 0.0 102494
21:00−18ююз3390100 0.0 102553